Regional Weather Roundup
Issued by NWS

Home | Current Version | Previous Version | Graphics & Text | Print | Product List | Glossary On
Versions: 1 2 3 4 5 6 7 8 9 10 11 12 13 14 15 16 17 18 19 20 21 22 23 24 25 26 27 28 29 30 31 32 33 34 35 36 37 38 39 40 41 42 43 44 45 46 47 48 49 50
000
ASUS43 KIND 101959
RWRIN

WEATHER ROUNDUP FOR INDIANA
NATIONAL WEATHER SERVICE INDIANAPOLIS IN
300 PM EST SAT DEC 10 2016

NOTE: "FAIR" INDICATES FEW OR NO CLOUDS BELOW 12,000 FEET WITH NO
SIGNIFICANT WEATHER AND/OR OBSTRUCTIONS TO VISIBILITY.

* - STATION DOES NOT REPORT WEATHER SUCH AS PRECIPITATION OR FOG.

+ - STATION NOT QUALITY CONTROLLED BY THE NATIONAL WEATHER SERVICE.
    USE DATA WITH CAUTION...ESPECIALLY DEWPOINT AND RELATIVE
    HUMIDITY OBSERVATIONS.

INZ001>003-010>013-019-020-102100-
NORTHWEST INDIANA

CITY           SKY/WX    TMP DP  RH WIND       PRES   REMARKS
GARY /AIRPORT/ CLOUDY    27  14  59 SW8       30.45F WCI  18

$$

LMZ046-743>745-102100-
SOUTHERN LAKE MICHIGAN

STATION/POSITION TIME  TEMP    WIND        PRES    WAVE
                       AIR SEA DIR/SP/G            HT
                 (UTC) (F)     (DEG/KT/KT) (MB)    (FT)

$$

INZ004-005-014>016-021>024-102100-
NORTH CENTRAL INDIANA

CITY           SKY/WX    TMP DP  RH WIND       PRES   REMARKS
ELKHART        CLOUDY    25  16  68 W12       30.44F WCI  14
GOSHEN         CLOUDY    25  12  58 W9        30.44S WCI  15
SOUTH BEND     CLOUDY    23  15  71 SW8       30.45S WCI  14

$$

INZ006>009-017-018-025>027-102100-
NORTHEAST INDIANA

CITY           SKY/WX    TMP DP  RH WIND       PRES   REMARKS
ANGOLA *+      CLOUDY    25  16  68 W9        30.41S WCI  15
FORT WAYNE     FLURRIES  26  14  60 W9        30.46S WCI  17
KENDALLVILLE + FLURRIES  25  15  65 W12       30.43S WCI  15

$$

INZ028-029-035-036-043>045-051>053-102100-
WEST CENTRAL INDIANA

CITY           SKY/WX    TMP DP  RH WIND       PRES   REMARKS
CRAWFORDSVL +  CLOUDY    26  17  70 SW7       30.46F WCI  18
GREENCASTLE +  CLOUDY    28  19  69 SW3       30.47S
LAFAYETTE      PTSUNNY   27  15  61 SW5       30.46F WCI  22
TERRE HAUTE    CLOUDY    28  15  58 SW7       30.48F WCI  21

$$

INZ030>032-037>040-046>048-054>057-064-065-102100-
CENTRAL INDIANA

CITY           SKY/WX    TMP DP  RH WIND       PRES   REMARKS
ANDERSON       MOSUNNY   27  16  63 SW6       30.46F WCI  20
COLUMBUS       MOSUNNY   28  19  69 SW6       30.49F WCI  22
GREENWOOD *+   CLOUDY    30  17  58 CALM      30.47F
INDIANAPOLIS   CLOUDY    29  15  56 SW7       30.46F WCI  22
-EAGLE CREEK   CLOUDY    28  15  58 SW7       30.46F WCI  21
KOKOMO +       CLOUDY    28  16  60 SW8       30.46F WCI  20
SHELBYVILLE    CLOUDY    30  16  56 SW8       30.46F WCI  22

$$

INZ033-034-041-042-049-050-058-059-102100-
EAST CENTRAL INDIANA

CITY           SKY/WX    TMP DP  RH WIND       PRES   REMARKS
MUNCIE         CLOUDY    28  16  60 W9        30.45F WCI  19

$$

INZ060-061-067>069-081>083-085>088-102100-
SOUTHWEST INDIANA

CITY           SKY/WX    TMP DP  RH WIND       PRES   REMARKS
EVANSVILLE     PTSUNNY   33  17  51 SE8       30.50F WCI  26
HUNTINGBURG *+ CLOUDY    34  16  47 SW3       30.50S

$$

INZ062-063-066-070>080-084-089>092-102100-
SOUTH CENTRAL AND SOUTHEAST INDIANA

CITY           SKY/WX    TMP DP  RH WIND       PRES   REMARKS
BLOOMINGTON    CLOUDY    29  16  58 S6        30.47F WCI  23
MADISON *+     CLOUDY    32  16  51 CALM      30.49F
SEYMOUR +      CLOUDY    32  18  55 SW5       30.49F WCI  27

$$




USA.gov is the U.S. government's official web portal to all federal, state and local government web resources and services.